User: anonymous   Login
Location: Unspecified
(0.0000°N, 0.0000°E)
Time: 07:33:38
(UTC+00:00)
Language:

NNS O-29 - Orbit

View from above orbital plane
View from above orbital plane
View from above satellite
View from above satellite

Ground track
Ground track

The orbit data is extracted from the following two-line orbital elements,

1 18362U 87080B   19082.77670465 +.00000060 +00000-0 +84099-4 0  9995
2 18362 090.3261 356.7023 0108235 073.8272 339.6164 13.44064356545166
Epoch (UTC): 23 March 2019 18:38:27
Eccentricity: 0.0108235
inclination: 90.3261°
perigee height: 1013 km
apogee height: 1175 km
right ascension of ascending node: 356.7023°
argument of perigee: 73.8272°
revolutions per day: 13.44064356
mean anomaly at epoch: 339.6164°
orbit number at epoch: 54516

The dashed part of the orbit path shows where the satellite is in the earth's shadow,  

DLR